Olympia, WA

1:42 AM PDT on May 26, 2017 (GMT -0700)
Olympia

Weather History for KOLM - June, 2013

Change the Weather History Date:

Friday, June 7, 2013

  Actual Average Record
Temperature  
Mean Temperature 58 °F 58 °F  
Max Temperature 67 °F 69 °F 93 °F (1948)
Min Temperature 49 °F 47 °F 35 °F (1979)
Degree Days  
Heating Degree Days 7 7  
Month to date heating degree days 26 54  
Since 1 June heating degree days 26 54  
Since 1 July heating degree days 5107 5250  
Cooling Degree Days 0 0  
Month to date cooling degree days 0 0  
Year to date cooling degree days 2 3  
Since 1 June cooling degree days 0 0  
Growing Degree Days 8 (Base 50)    
Moisture  
Dew Point 48 °F    
Average Humidity 71    
Maximum Humidity 89    
Minimum Humidity 52    
Precipitation  
Precipitation 0.00 in 0.07 in 0.63 in (2012)
Month to date precipitation 0.00 0.50  
Year to date precipitation 19.56 24.77  
Sea Level Pressure  
Sea Level Pressure 30.11 in    
Wind  
Wind Speed 9 mph (SW)    
Max Wind Speed 16 mph    
Max Gust Speed 20 mph    
Visibility 10 miles    
Events      
T = Trace of Precipitation, MM = Missing Value Source: NWS Daily Summary

Daily Weather History Graph

Daily Weather History Graph

Search for Another Location

Airport or City:

Trip Planner

Search our weather history database for the weather conditions in past years. The results will help you decide how hot, cold, wet, or windy it might be!

Date:

Astronomy

Jun. 07, 2013 Rise Set
Actual Time 5:17 AM PDT 9:03 PM PDT
Civil Twilight 4:38 AM PDT 9:43 PM PDT
Nautical Twilight 3:45 AM PDT 10:36 PM PDT
Astronomical Twilight 2:29 AM PDT 11:53 PM PDT
Moon 4:49 AM PDT (6/7) 8:18 PM PDT (6/7)
Length of Visible Light 17h 04m
Length of Day
15h 46m
Waning Crescent, 1% of the Moon is Illuminated
Jun 7
Waning Crescent
Jun 8
New
Jun 16
First Quarter
Jun 23
Full
Jun 29
Last Quarter

Hourly Weather History & Observations

Time (PDT) Temp. Dew Point Humidity Pressure Visibility Wind Dir Wind Speed Gust Speed Precip Events Conditions
12:54 AM 53.1 °F 44.1 °F 71% 30.06 in 10.0 mi South 4.6 mph - N/A   Clear
1:54 AM 53.1 °F 44.1 °F 71% 30.06 in 10.0 mi South 3.5 mph - N/A   Clear
2:54 AM 48.9 °F 44.1 °F 83% 30.07 in 10.0 mi Calm Calm - N/A   Clear
3:54 AM 51.1 °F 46.0 °F 83% 30.08 in 10.0 mi SSW 4.6 mph - N/A   Partly Cloudy
4:54 AM 52.0 °F 46.0 °F 80% 30.08 in 10.0 mi SSW 6.9 mph - N/A   Partly Cloudy
5:54 AM 53.1 °F 46.0 °F 77% 30.09 in 10.0 mi SSW 9.2 mph - N/A   Overcast
6:54 AM 53.1 °F 46.9 °F 80% 30.09 in 10.0 mi SSW 8.1 mph - N/A   Overcast
7:54 AM 55.0 °F 45.0 °F 69% 30.10 in 10.0 mi SSW 12.7 mph - N/A   Overcast
8:54 AM 57.0 °F 44.1 °F 62% 30.10 in 10.0 mi SSW 11.5 mph - N/A   Overcast
9:54 AM 59.0 °F 46.0 °F 62% 30.11 in 10.0 mi SSW 8.1 mph - N/A   Mostly Cloudy
10:54 AM 63.0 °F 44.1 °F 50% 30.12 in 10.0 mi SSW 9.2 mph - N/A   Mostly Cloudy
11:54 AM 63.0 °F 45.0 °F 52% 30.12 in 10.0 mi SSW 11.5 mph - N/A   Overcast
12:54 PM 64.0 °F 51.1 °F 63% 30.12 in 10.0 mi SSW 12.7 mph - N/A   Mostly Cloudy
1:54 PM 64.0 °F 53.1 °F 67% 30.12 in 10.0 mi SW 13.8 mph - N/A   Mostly Cloudy
2:54 PM 64.9 °F 54.0 °F 68% 30.13 in 10.0 mi SW 15.0 mph - N/A   Overcast
3:54 PM 66.9 °F 54.0 °F 63% 30.13 in 10.0 mi WSW 11.5 mph - N/A   Mostly Cloudy
4:54 PM 66.0 °F 52.0 °F 60% 30.13 in 10.0 mi WSW 9.2 mph - N/A   Mostly Cloudy
5:54 PM 66.0 °F 52.0 °F 60% 30.13 in 10.0 mi West 12.7 mph - N/A   Mostly Cloudy
6:54 PM 66.0 °F 50.0 °F 56% 30.13 in 10.0 mi WSW 11.5 mph 16.1 mph N/A   Scattered Clouds
7:54 PM 64.0 °F 50.0 °F 60% 30.12 in 10.0 mi WSW 8.1 mph - N/A   Clear
8:54 PM 60.1 °F 50.0 °F 69% 30.14 in 10.0 mi WSW 6.9 mph - N/A   Clear
9:54 PM 55.0 °F 48.9 °F 80% 30.15 in 10.0 mi SSW 8.1 mph - N/A   Clear
10:54 PM 51.1 °F 48.0 °F 89% 30.17 in 10.0 mi SSW 6.9 mph - N/A   Clear
11:54 PM 50.0 °F 46.9 °F 89% 30.17 in 10.0 mi South 4.6 mph - N/A   Clear